Location: Ljubljana
(46.0550°N, 14.5140°E)
Time: 18:37:50
(UTC+01:00)

N. Korean satellite - Visible Passes

Search period start: 23 January 2018 00:00
Search period end: 02 February 2018 00:00
Orbit: 458 x 515 km, 97.2° (Epoch: 23 January)

Date Brightness Start Highest point End Pass type
(mag) Time Alt. Az. Time Alt. Az. Time Alt. Az.
23 Jan 6.5 06:52:34 10° NNE 06:56:02 90° SSE 06:59:29 10° SSW visible
23 Jan 6.8 17:30:59 10° SSE 17:34:25 47° ENE 17:37:49 10° N visible
23 Jan 10.1 19:06:41 10° WSW 19:08:11 12° W 19:09:41 10° WNW visible
24 Jan 7.9 06:29:00 10° NNE 06:32:19 43° E 06:35:38 10° S visible
24 Jan 9.2 18:41:29 10° SSW 18:44:20 22° W 18:47:10 10° NW visible
25 Jan 9.3 06:05:45 10° NE 06:08:32 22° E 06:11:19 10° SSE visible
25 Jan 7.9 18:17:09 10° S 18:20:33 42° W 18:23:55 10° NNW visible
26 Jan 10.1 05:43:15 10° ENE 05:44:40 12° E 05:46:05 10° ESE visible
26 Jan 6.5 17:53:18 10° SSE 17:56:50 87° WSW 18:00:22 10° NNW visible
27 Jan 6.5 06:51:19 10° NNE 06:54:48 88° ESE 06:58:17 10° SSW visible
27 Jan 6.8 17:29:49 10° SSE 17:33:12 45° ENE 17:36:34 10° N visible
27 Jan 10.1 19:05:27 10° WSW 19:06:58 12° W 19:08:29 10° WNW visible
28 Jan 7.9 06:27:45 10° NNE 06:31:05 42° E 06:34:24 10° S visible
28 Jan 9.2 18:40:16 10° SSW 18:43:06 23° W 18:45:55 10° NW visible
29 Jan 9.3 06:04:31 10° NE 06:07:17 22° E 06:10:03 10° SSE visible
29 Jan 7.8 18:15:57 10° S 18:19:19 43° W 18:22:39 10° NNW visible
30 Jan 10.1 05:42:02 10° ENE 05:43:25 12° E 05:44:47 10° ESE visible
30 Jan 6.5 17:52:05 10° SSE 17:55:36 89° NW 17:59:05 10° NNW visible
31 Jan 6.6 06:50:03 10° NNE 06:53:32 85° ESE 06:57:03 10° SSW visible
31 Jan 10.1 19:04:09 10° WSW 19:05:42 12° W 19:07:14 10° WNW visible
01 Feb 8.0 06:26:29 10° NNE 06:29:48 41° E 06:33:09 10° S visible
01 Feb 9.2 18:39:00 10° SSW 18:41:49 23° W 18:44:38 10° NW visible
